Regional Weather Roundup
Issued by NWS Midland/Odessa, TX

Skip options and go directly to product.
Home | Oldest Version | Next Version | Current Version | All | Text Only | Save Text | Print | Product List | Glossary On

Skip product version selection by date and time.   
108
ASUS44 KMAF 100501
RWRMAF
MIDLAND AREA WEATHER ROUNDUP
NATIONAL WEATHER SERVICE MIDLAND TX
1100 PM CST FRI DEC 09 2016

...IN SOUTHWEST TEXAS AND SOUTHEAST NEW MEXICO...

CITY           SKY/WX    TMP DP  RH WIND       PRES   REMARKS
ALPINE         CLOUDY    42  37  79 W12       30.36R WCI  36
ANDREWS        FAIR      32  32 100 SE6       30.30S WCI  26
ARTESIA        CLOUDY    28  28 100 CALM      30.26R
BIG SPRING     CLOUDY    35  30  82 SE8       30.36R WCI  28
CARLSBAD       CLOUDY    27  27 100 SW3       30.24S
DRYDEN           N/A     33  30  88 CALM      30.37S
FORT STOCKTON  CLOUDY    38  35  89 SE8       30.28R WCI  32
GUAD PASS      NOT AVBL
HOBBS          CLOUDY    28  28 100 SE5       30.27S WCI  23
MARFA          CLOUDY    25  24  96 N3        30.35R
MIDLAND AIRPK  CLOUDY    36  30  79 SE8       30.33R WCI  30
MIDLAND INTL   CLOUDY    34  29  82 S9        30.31R WCI  27
ODESSA         CLOUDY    35  29  78 S12       30.31R WCI  27
PECOS          CLOUDY    33  32  94 CALM      30.29R
PRESIDIO       FAIR      38  33  84 N3        30.34S
SEMINOLE       CLOUDY    30  29  96 CALM      30.30R
SNYDER         CLEAR     33  28  81 S9        30.35S WCI  25
WINK           CLOUDY    35  32  88 SE9       30.27S WCI  28
$$
...OTHER STATIONS IN TEXAS...

CITY           SKY/WX    TMP DP  RH WIND       PRES   REMARKS
ABILENE        CLEAR     33  24  69 S9        30.40S WCI  25
AMARILLO       CLOUDY    30  28  92 SE13      30.23R WCI  20
AUSTIN         MOCLDY    38  31  76 CALM      30.52R
BROWNSVILLE    CLOUDY    46  34  62 NW14      30.45S WCI  40
CORPUS CHRISTI CLOUDY    48  33  56 N10       30.50S
DALLAS FTW     PTCLDY    33  21  61 CALM      30.50S
DEL RIO        CLOUDY    42  30  62 E8        30.45S WCI  37
EL PASO        PTCLDY    39  30  70 CALM      30.31R
HOUSTON INT    CLOUDY    45  28  51 NE7       30.52S
LUBBOCK        CLOUDY    30  26  85 S9        30.28F WCI  22
SAN ANGELO     CLEAR     37  26  64 S8        30.40R WCI  31
SAN ANTONIO    CLOUDY    41  26  55 CALM      30.50S
WACO           CLOUDY    38  29  70 SE5       30.52R WCI  34
WICHITA FALLS  NOT AVBL
$$
...OTHER LOCATIONS IN NEW MEXICO...

CITY           SKY/WX    TMP DP  RH WIND       PRES   REMARKS
ALAMAGORDO     NOT AVBL
ALBUQUERQUE    CLOUDY    34  25  69 E6        30.30S WCI  29
CANNON AFB     CLOUDY    28  28 100 S6        30.22R WCI  21
CLOVIS         CLOUDY    28  25  86 S9        30.21F WCI  20
HOLLOMAN AFB   CLOUDY    30  21  69 NE7       30.35F WCI  24
ROSWELL        CLOUDY    28  24  85 CALM      30.24S
RUIDOSO        CLOUDY    39  25  56 W7        30.32R WCI  34
SANTA FE       CLOUDY    33  23  66 CALM      30.29R
TRUTH OR CONSE PTCLDY    35  26  69 NW7       30.30R WCI  29
TUCUMCARI      CLOUDY    31  25  78 SE6       30.15S WCI  25
$$

  • National Weather Service
  • Southern Region Headquarters
  • 819 Taylor Street, Room 10A06
  • Fort Worth, TX 76102
  • Page Author: NWS Fort Worth
  • Web Master: SR-SRH.Webmaster@noaa.gov
  •  
  • Page last modified: 30-Sep-2016 6:36 PM UTC
USA.gov is the U.S. government's official web portal to all federal, state and local government web resources and services.